Weather History for Muscatine, IA

Change the Weather History Date:

Wednesday, March 12, 2014

  Actual Average Record
Temperature  
Mean Temperature 32 °F -  
Max Temperature 37 °F 46 °F 80 °F (1990)
Min Temperature 26 °F 28 °F -2 °F (1960)
Degree Days  
Heating Degree Days 34    
Moisture  
Dew Point 23 °F    
Average Humidity 66    
Maximum Humidity 93    
Minimum Humidity 52    
Precipitation  
Precipitation 0.04 in - - ()
Sea Level Pressure  
Sea Level Pressure 30.00 in    
Wind  
Wind Speed 16 mph (NNW)    
Max Wind Speed 24 mph    
Max Gust Speed 33 mph    
Visibility 10 miles    
Events Snow    
Averages and records for this station are not official NWS values.
T = Trace of Precipitation, MM = Missing Value Source: NWS Daily Summary

Daily Weather History Graph

Daily Weather History Graph

Search for Another Location

Airport:

Trip Planner

Search our weather history database for the weather conditions in past years. The results will help you decide how hot, cold, wet, or windy it might be!

Date:

Astronomy

Mar. 12, 2014 Rise Set
Actual Time 7:21 AM CDT 7:07 PM CDT
Civil Twilight 6:53 AM CDT 7:35 PM CDT
Nautical Twilight 6:21 AM CDT 8:07 PM CDT
Astronomical Twilight 5:49 AM CDT 8:40 PM CDT
Moon 3:36 PM CDT (3/12) 4:55 AM CDT (3/12)
Length of Visible Light 12h 41m
Length of Day
11h 46m
Waxing Gibbous, 85% of the Moon is Illuminated
Mar 12
Waxing Gibbous
Mar 16
Full
Mar 23
Last Quarter
Mar 30
New
Apr 7
First Quarter

Hourly Weather History & Observations

Time (CDT) Temp. Windchill Dew Point Humidity Pressure Visibility Wind Dir Wind Speed Gust Speed Precip Events Conditions
12:15 AM 35.6 °F 25.5 °F 32.0 °F 87% 29.84 in 5.0 mi North 17.3 mph 25.3 mph N/A   Overcast
12:35 AM 35.6 °F 25.9 °F 32.0 °F 87% 29.83 in 4.0 mi North 16.1 mph 26.5 mph N/A Snow Light Snow
12:55 AM 33.8 °F 23.9 °F 32.0 °F 93% 29.84 in 2.5 mi NNW 15.0 mph - 0.02 in Snow Light Snow
1:15 AM 33.8 °F 25.8 °F 32.0 °F 93% 29.83 in 5.0 mi NNW 10.4 mph - N/A Snow Light Snow
1:35 AM 35.6 °F 28.6 °F 30.2 °F 81% 29.83 in 10.0 mi NNW 9.2 mph - N/A Snow Light Snow
1:55 AM 35.6 °F 27.5 °F 30.2 °F 81% 29.82 in 10.0 mi NNW 11.5 mph - 0.01 in   Overcast
2:15 AM 37.4 °F 28.5 °F 28.4 °F 70% 29.82 in 10.0 mi NNW 15.0 mph 21.9 mph N/A   Mostly Cloudy
2:35 AM 37.4 °F 27.2 °F 28.4 °F 70% 29.82 in 10.0 mi NNW 19.6 mph - N/A   Overcast
2:55 AM 37.4 °F 28.2 °F 28.4 °F 70% 29.82 in 10.0 mi NNW 16.1 mph - N/A   Overcast
3:15 AM 35.6 °F 26.2 °F 28.4 °F 75% 29.81 in 10.0 mi NNW 15.0 mph 21.9 mph N/A   Overcast
3:35 AM 35.6 °F 25.2 °F 28.4 °F 75% 29.81 in 10.0 mi NNW 18.4 mph - N/A   Overcast
3:55 AM 35.6 °F 25.2 °F 28.4 °F 75% 29.82 in 10.0 mi NNW 18.4 mph 25.3 mph N/A   Mostly Cloudy
4:15 AM 35.6 °F 25.2 °F 26.6 °F 70% 29.83 in 10.0 mi NNW 18.4 mph 28.8 mph N/A   Mostly Cloudy
4:35 AM 35.6 °F 25.5 °F 26.6 °F 70% 29.83 in 10.0 mi NNW 17.3 mph 25.3 mph N/A   Overcast
4:55 AM 35.6 °F 24.8 °F 26.6 °F 70% 29.85 in 10.0 mi NNW 19.6 mph 26.5 mph N/A   Overcast
5:15 AM 35.6 °F 24.5 °F 24.8 °F 65% 29.86 in 10.0 mi NNW 20.7 mph 29.9 mph N/A   Overcast
5:35 AM 33.8 °F 22.2 °F 24.8 °F 70% 29.88 in 10.0 mi NNW 20.7 mph 27.6 mph N/A   Mostly Cloudy
5:55 AM 33.8 °F 22.5 °F 24.8 °F 70% 29.89 in 10.0 mi NNW 19.6 mph 28.8 mph 0.01 in   Scattered Clouds
6:15 AM 33.8 °F 22.5 °F 24.8 °F 70% 29.90 in 10.0 mi NNW 19.6 mph 29.9 mph N/A   Mostly Cloudy
6:35 AM 33.8 °F 21.3 °F 23.0 °F 65% 29.92 in 10.0 mi NNW 24.2 mph 29.9 mph N/A   Overcast
6:55 AM 32.0 °F 20.1 °F 21.2 °F 64% 29.93 in 10.0 mi NNW 19.6 mph 29.9 mph N/A   Overcast
7:15 AM 32.0 °F 19.2 °F 21.2 °F 64% 29.94 in 10.0 mi NNW 23.0 mph 33.4 mph N/A   Overcast
7:35 AM 32.0 °F 18.9 °F 21.2 °F 64% 29.95 in 10.0 mi NNW 24.2 mph 29.9 mph N/A   Overcast
7:55 AM 32.0 °F 19.8 °F 21.2 °F 64% 29.96 in 10.0 mi NNW 20.7 mph 29.9 mph N/A   Overcast
8:15 AM 32.0 °F 18.9 °F 19.4 °F 60% 29.97 in 10.0 mi NNW 24.2 mph 31.1 mph N/A   Overcast
8:35 AM 32.0 °F 18.9 °F 19.4 °F 60% 29.97 in 10.0 mi NNW 24.2 mph 33.4 mph N/A   Overcast
8:55 AM 32.0 °F 19.2 °F 19.4 °F 60% 29.98 in 10.0 mi NNW 23.0 mph 31.1 mph N/A   Mostly Cloudy
9:15 AM 32.0 °F 19.8 °F 19.4 °F 60% 29.99 in 10.0 mi NNW 20.7 mph 27.6 mph N/A   Mostly Cloudy
9:35 AM 32.0 °F 20.1 °F 19.4 °F 60% 30.00 in 10.0 mi NNW 19.6 mph 28.8 mph N/A   Partly Cloudy
9:55 AM 32.0 °F 18.9 °F 19.4 °F 60% 30.00 in 10.0 mi NW 24.2 mph - N/A   Clear
10:15 AM 33.8 °F 21.9 °F 21.2 °F 60% 30.01 in 10.0 mi NW 21.9 mph - N/A   Clear
10:35 AM 33.8 °F 22.5 °F 21.2 °F 60% 30.01 in 10.0 mi NW 19.6 mph 28.8 mph N/A   Clear
10:55 AM 33.8 °F 22.2 °F 21.2 °F 60% 30.02 in 10.0 mi NNW 20.7 mph 27.6 mph N/A   Clear
11:15 AM 33.8 °F 22.5 °F 23.0 °F 65% 30.03 in 10.0 mi NNW 19.6 mph - N/A   Partly Cloudy
11:35 AM 35.6 °F 24.0 °F 21.2 °F 56% 30.04 in 10.0 mi NW 23.0 mph 29.9 mph N/A   Mostly Cloudy
11:55 AM 33.8 °F 22.2 °F 21.2 °F 60% 30.04 in 10.0 mi NNW 20.7 mph 28.8 mph N/A   Overcast
12:15 PM 35.6 °F 25.2 °F 23.0 °F 60% 30.04 in 10.0 mi NNW 18.4 mph 25.3 mph N/A   Mostly Cloudy
12:35 PM 35.6 °F 25.2 °F 23.0 °F 60% 30.04 in 10.0 mi NNW 18.4 mph 25.3 mph N/A   Mostly Cloudy
12:55 PM 35.6 °F 24.8 °F 21.2 °F 56% 30.05 in 10.0 mi NW 19.6 mph 26.5 mph N/A   Mostly Cloudy
1:15 PM 35.6 °F 25.5 °F 21.2 °F 56% 30.05 in 10.0 mi NW 17.3 mph 25.3 mph N/A   Mostly Cloudy
1:35 PM 35.6 °F 24.8 °F 21.2 °F 56% 30.05 in 10.0 mi NNW 19.6 mph - N/A   Mostly Cloudy
1:55 PM 35.6 °F 25.5 °F 21.2 °F 56% 30.05 in 10.0 mi NNW 17.3 mph 26.5 mph N/A   Mostly Cloudy
2:15 PM 35.6 °F 25.5 °F 21.2 °F 56% 30.05 in 10.0 mi NNW 17.3 mph - N/A   Mostly Cloudy
2:35 PM 35.6 °F 25.5 °F 19.4 °F 52% 30.05 in 10.0 mi NW 17.3 mph 23.0 mph N/A   Overcast
2:55 PM 35.6 °F 25.9 °F 21.2 °F 56% 30.06 in 10.0 mi NW 16.1 mph 24.2 mph N/A   Overcast
3:15 PM 35.6 °F 26.2 °F 21.2 °F 56% 30.06 in 10.0 mi NW 15.0 mph - N/A   Overcast
3:35 PM 35.6 °F 26.6 °F 21.2 °F 56% 30.07 in 10.0 mi NW 13.8 mph 21.9 mph N/A   Overcast
3:55 PM 35.6 °F 25.2 °F 19.4 °F 52% 30.07 in 10.0 mi NW 18.4 mph 24.2 mph N/A   Overcast
4:15 PM 35.6 °F 25.9 °F 21.2 °F 56% 30.07 in 10.0 mi NW 16.1 mph 24.2 mph N/A   Overcast
4:35 PM 33.8 °F 23.5 °F 21.2 °F 60% 30.08 in 10.0 mi NNW 16.1 mph 23.0 mph N/A   Overcast
4:55 PM 33.8 °F 23.2 °F 21.2 °F 60% 30.09 in 10.0 mi NW 17.3 mph 24.2 mph N/A   Overcast
5:15 PM 33.8 °F 23.5 °F 19.4 °F 56% 30.08 in 10.0 mi NNW 16.1 mph - N/A   Mostly Cloudy
5:35 PM 33.8 °F 23.9 °F 21.2 °F 60% 30.09 in 10.0 mi NW 15.0 mph 20.7 mph N/A   Mostly Cloudy
5:55 PM 33.8 °F 23.5 °F 19.4 °F 56% 30.10 in 10.0 mi NNW 16.1 mph - N/A   Mostly Cloudy
6:15 PM 32.0 °F 22.1 °F 19.4 °F 60% 30.10 in 10.0 mi NNW 13.8 mph - N/A   Scattered Clouds
6:35 PM 32.0 °F 22.1 °F 19.4 °F 60% 30.11 in 10.0 mi NW 13.8 mph 20.7 mph N/A   Clear
6:55 PM 32.0 °F 23.0 °F 19.4 °F 60% 30.12 in 10.0 mi NW 11.5 mph - N/A   Clear
7:15 PM 32.0 °F 24.8 °F 21.2 °F 64% 30.12 in 10.0 mi NW 8.1 mph 15.0 mph N/A   Partly Cloudy
7:35 PM 30.2 °F 21.3 °F 19.4 °F 64% 30.12 in 10.0 mi NW 10.4 mph - N/A   Clear
7:55 PM 30.2 °F 23.4 °F 21.2 °F 69% 30.12 in 10.0 mi NW 6.9 mph - N/A   Partly Cloudy
8:15 PM 30.2 °F 24.3 °F 21.2 °F 69% 30.13 in 10.0 mi NW 5.8 mph - N/A   Clear
8:35 PM 28.4 °F 22.2 °F 21.2 °F 74% 30.14 in 10.0 mi NW 5.8 mph - N/A   Clear
8:55 PM 28.4 °F 22.2 °F 21.2 °F 74% 30.14 in 10.0 mi NW 5.8 mph - N/A   Clear
9:15 PM 28.4 °F 22.2 °F 21.2 °F 74% 30.14 in 10.0 mi NW 5.8 mph - N/A   Partly Cloudy
9:35 PM 28.4 °F 22.2 °F 21.2 °F 74% 30.15 in 10.0 mi NW 5.8 mph - N/A   Clear
9:55 PM 28.4 °F 24.6 °F 21.2 °F 74% 30.15 in 10.0 mi NW 3.5 mph - N/A   Clear
10:15 PM 28.4 °F - 21.2 °F 74% 30.15 in 10.0 mi Calm Calm - N/A   Clear
10:35 PM 28.4 °F 24.6 °F 21.2 °F 74% 30.14 in 10.0 mi NNW 3.5 mph - N/A   Clear
10:55 PM 28.4 °F - 21.2 °F 74% 30.14 in 10.0 mi Calm Calm - N/A   Clear
11:15 PM 26.6 °F - 21.2 °F 80% 30.14 in 10.0 mi Calm Calm - N/A   Clear
11:35 PM 26.6 °F - 21.2 °F 80% 30.13 in 10.0 mi Calm Calm - N/A   Clear
11:55 PM 26.6 °F - 21.2 °F 80% 30.13 in 10.0 mi Calm Calm - N/A   Clear